Regional Weather Roundup
Issued by NWS Grand Forks, ND

Home | Current Version | Previous Version | Text Only | Print | Product List | Glossary Off
Versions: 1 2 3 4 5 6 7 8 9 10 11 12 13 14 15 16 17 18 19 20 21 22 23 24 25 26 27 28 29 30 31 32 33 34 35 36 37 38 39 40 41 42 43 44 45 46 47 48 49 50

000
ASUS43 KFGF 170110
RWRFGF
PRAIRIE TO PINES  WEATHER ROUNDUP
NATIONAL WEATHER SERVICE EASTERN NORTH DAKOTA/GRAND FORKS ND
800 PM CDT MON OCT 16 2017

 **SATELLITE DATA USED TO AUGMENT SKY COVER AT AUTOMATED STATIONS**
 *****  WEATHER ACROSS EASTERN NORTH DAKOTA  *****

CITY           SKY/WX    TMP DP  RH WIND       PRES   REMARKS
GRAND FORKS    FAIR      53  37  54 W6        29.85S
GRAND FRKS AFB FAIR      54  35  49 W8        29.87R
DEVILS LAKE    FAIR      53  36  52 W7        29.90R
FARGO          FAIR      55  39  54 W7        29.88R
WAHPETON ARPT  NOT AVBL
$$

 ***** WEATHER ACROSS CENTRAL AND WESTERN NORTH DAKOTA  *****

CITY           SKY/WX    TMP DP  RH WIND       PRES   REMARKS
BISMARCK       FAIR      57  33  40 NW3       29.96R
MINOT          FAIR      55  35  47 SW9       29.91S
JAMESTOWN      FAIR      56  33  42 W7        29.91R
MINOT AFB      FAIR      50  32  50 SW7       29.89S
GARRISON         N/A     56  34  43 W9        29.94S
WILLISTON      FAIR      54  32  43 S6        29.94S
DICKINSON      FAIR      50  30  46 W5        29.98S
HETTINGER      FAIR      48  28  46 NW6       30.03R
$$

 *****  OTHER AIRPORT OBSERVATIONS IN OUR AREA  *****

CITY           SKY/WX    TMP DP  RH WIND       PRES   REMARKS
WALHALLA       FAIR     N/A N/A N/A W9G15     29.82F
GRAFTON AIRPOR FAIR      52  36  54 W10       29.86R
VALLEY CITY AR FAIR      57  34  41 W8        29.92S
CANDO          FAIR      46  34  61 SW7       29.91S
CAVALIER APRT  FAIR      57  37  47 W7        29.82F
GWINNER        CLEAR     54  41  62 SW7       29.91S
SHEYENNE NWR     N/A     54  42  63 W6        29.95S
ROLLA          FAIR      50  32  50 W7        29.89R
 ***** THE ABOVE OBSERVATIONS ARE NON NWS ARE NOT QUALITY
       CONTROLLED AND MAY MIS-REPORT RAIN FOR SNOW...
$$

  *****  WEATHER ACROSS NORTHERN MINNESOTA  *****

CITY           SKY/WX    TMP DP  RH WIND       PRES   REMARKS
FLAG ISLAND    FAIR      55  37  50 SW9       29.75S
WARROAD        FAIR      55  41  58 SW8       29.80S
ROSEAU           N/A     59  39  47 SW7       29.81R
HALLOCK        FAIR      52  34  50 W8        29.82S
THF RVR FALLS  FAIR      55  35  47 W7        29.86S
BAUDETTE       FAIR      57  37  47 SW7       29.80S
WASKISH        FAIR      54  45  71 SW8       29.83S
CROOKSTON      FAIR      52  34  50 W9        29.87R
STEPHEN NDAWN    N/A     55  36  47 W5          N/A
GREENBUSH NDAW   N/A     48  39  71 SW5         N/A
$$
  *****  WEATHER ACROSS CENTRAL AND WEST MINNESOTA  *****

CITY           SKY/WX    TMP DP  RH WIND       PRES   REMARKS
FOSSTON        FAIR      52  34  50 W3        29.88R
BEMIDJI        FAIR      55  38  54 SW6       29.86R
PARK RAPIDS    FAIR      50  39  66 S10       29.88S
ELBOW LAKE     FAIR      51  40  65 W7        29.93S
WADENA         FAIR      52  39  62 SW3       29.91R
DETROIT LAKES  FAIR      59  37  44 SW5       29.91R
MOORHEAD       FAIR      55  41  58 SW6       29.90R
FERGUS FALLS   FAIR      54  41  62 SW6       29.92S
MORRIS MN      FAIR      54  43  66 SW3       29.93S
STAPLES        FAIR      54  37  54 CALM      29.91R
$$
  *****  WEATHER ELSEWHERE ACROSS MINNESOTA  *****

CITY           SKY/WX    TMP DP  RH WIND       PRES   REMARKS
DULUTH         FAIR      53  36  52 SW13      29.90F
INTRNTL FALLS  FAIR      45  35  68 SW6       29.80R
ELY            FAIR      52  32  46 S8        29.85F
CLOQUET        FAIR      54  34  47 S7        29.91F
WHEATON        FAIR      55  39  54 SW3       29.95R
BRAINERD       FAIR      55  37  50 S7        29.91F
HIBBING        FAIR      52  34  50 S5        29.87F
ALEXANDRIA     FAIR      56  39  53 SW9       29.94S
SAINT CLOUD    FAIR      51  40  65 S8        29.94F
MINNEAPOLIS    FAIR      61  38  42 S9        29.98F
$$

  *****  WEATHER ACROSS SOUTH DAKOTA  *****

CITY           SKY/WX    TMP DP  RH WIND       PRES   REMARKS
SIOUX FALLS    FAIR      63  41  44 SW3       30.01R
BROOKINGS      FAIR      54  40  59 SW6       29.99S
WATERTOWN      FAIR      50  42  74 SW8       29.97S
HURON          FAIR      55  42  61 S5        29.99R
SISSETON         N/A     60  43  53 SW12      29.92R
ABERDEEN       FAIR      52  41  66 SW5       29.94S
MITCHELL       FAIR      59  41  51 CALM      30.01R
PIERRE         FAIR      58  38  47 SW3       29.99R
MOBRIDGE       FAIR      54  36  50 W6        29.96R
RAPID CITY     FAIR      57  28  33 SW10      30.08R
$$

  *****  SOME WEATHER IN NEARBY STATES *****

CITY           SKY/WX    TMP DP  RH WIND       PRES   REMARKS
GLASGOW MT     FAIR      56  32  40 S6        29.92F
GREAT FALLS MT FAIR      59  19  21 SW16      30.04S
CHEYENNE WY    FAIR      60   6  11 NW8       30.27R
SCOTTSBLUFF NE FAIR      55  23  28 N9        30.15R
OMAHA NE       FAIR      64  40  41 S10       30.11S
DES MOINES IA  FAIR      58  39  49 S9        30.15S
DAVENPORT IA   FAIR      50  38  63 S7        30.22F
CHICAGO IL     FAIR      55  37  50 SW5       30.21S
EAU CLAIRE WI  FAIR      53  36  52 S8        30.02F
LA CROSSE WI   FAIR      53  41  63 SE7       30.08F
$$

  *****  SOME NATIONAL WEATHER *****

CITY           SKY/WX    TMP DP  RH WIND       PRES   REMARKS
LA GUARDIA NY  FAIR      54  37  52 N14G23    30.16R
RALEIGH NC     MOCLDY    58  49  72 NE9       30.19R
ATLANTA GA     MOCLDY    59  45  59 N14       30.16R
NEW ORLEANS LA MOCLDY    70  52  52 N15       30.15R
OKLAHOMA CITY  FAIR      54  42  64 SE7       30.28S
ALBUQUERQUE NM FAIR      67  26  21 SW6       30.33F
SALT LAKE CITY FAIR      53  34  48 W6        30.32F
LOS ANGELES CA FAIR      76  52  43 SW10      29.97S
BOISE ID       FAIR      60  30  32 W5        30.25F
SEATTLE WA     MOCLDY    58  47  66 S9        30.13F
$$

*** WEATHER ACROSS MANITOBA...SASKATCHEWAN AND ONTARIO ***
                ***ONTARIO***

CITY           SKY/WX    TMP DP  RH WIND       PRES   REMARKS
GERALDTON      CLOUDY    46  36  66 S13G20    29.80F
THUNDER BAY    MOCLDY    52  39  62 SW8       29.85F
SIOUX LOOKOUT  CLOUDY    50  37  62 S6        29.69S
TORONTO        CLEAR     43  30  61 NE3       30.25S
BIG TROUT LK   CLOUDY    45  37  76 S14G20    29.45F
PICKLE LAKE    MOCLDY    50  36  57 SW16G23   29.60F
DRYDEN         CLOUDY    54  37  54 SW10      29.70F
KENORA         MOCLDY    52  39  62 SW7       29.74S
$$
                *** MANITOBA***

CITY           SKY/WX    TMP DP  RH WIND       PRES   REMARKS
BRANDON        PTCLDY    50  34  53 W10       29.84R
DAUPHIN        CLEAR     54  28  37 W13       29.78R
ISLAND LAKE    MOCLDY    52  39  62 NW20G31   29.51R
PILOT MOUND      N/A     54  36  50 W7          N/A
THE PAS        PTCLDY    43  32  65 W7        29.72R
THOMPSON       LGT RAIN  39  34  81 NW15G26   29.59R
WINNIPEG       PTCLDY    57  37  47 W15       29.77R
LYNN LAKE      MOCLDY    32  32 100 NW9       29.68R WCI  24
CHURCHILL      LGT SNOW  32  32 100 NE16      29.62R WCI  21
GILLAM         CLOUDY    34  32  93 N14       29.44R WCI  24
$$
                ***SASKATCHEWAN***

CITY           SKY/WX    TMP DP  RH WIND       PRES   REMARKS
ESTEVAN        PTCLDY    48  32  53 S5        29.89F
KINDERSLEY     PTCLDY    48  28  46 SE9       29.70F
LLOYDMINSTER   CLOUDY    50  30  46 NE3       29.68F
PRINCE ALBERT  PTCLDY    46  28  49 VRB2      29.75F
REGINA         PTCLDY    48  28  46 S8        29.83F
YORKTON        CLEAR     54  30  40 SW10      29.81S
N. BATTLEFORD  PTCLDY    50  27  40 E5        29.73F
LA RONGE       PTCLDY    41  34  75 CALM      29.70S
SASKATOON      PTCLDY    50  30  46 S6        29.75F
SWIFT CURRENT  CLEAR     50  30  46 S14       29.79F
$$
NOTE: THESE ARE AUTOMATED STATIONS WITH LIMITED QUALITY CONTROL
      "FAIR" INDICATES FEW OR NO CLOUDS BELOW 12,000 FEET WITH NO
      SIGNIFICANT WEATHER AND/OR OBSTRUCTIONS TO VISIBILITY.
      SKY/WX - SKY CONDITION AND SIGNIFICANT WEATHER.
      TMP - AIR TEMPERATURE.    DP   - DEWPOINT TEMPERATURE.
      RH  - RELATIVE HUMIDITY.  PRES - PRESSURE.
      HX  - HEAT INDEX.         WCI  - WIND CHILL INDEX.
$




USA.gov is the U.S. government's official web portal to all federal, state and local government web resources and services.